Fort Bragg, NC

2:59 PM EDT on May 20, 2018 (GMT -0400)
Simmons Army Air Field

Weather History for KFBG - November, 2013

Change the Weather History Date:

Monday, November 4, 2013

  Actual Average Record
Temperature  
Mean Temperature 48 °F -  
Max Temperature 58 °F 65 °F 82 °F (2003)
Min Temperature 37 °F 45 °F 30 °F (1996)
Degree Days  
Heating Degree Days 18    
Moisture  
Dew Point 35 °F    
Average Humidity 64    
Maximum Humidity 99    
Minimum Humidity 35    
Precipitation  
Precipitation 0.00 in - - ()
Sea Level Pressure  
Sea Level Pressure 30.48 in    
Wind  
Wind Speed 5 mph (NNE)    
Max Wind Speed 13 mph    
Max Gust Speed 18 mph    
Visibility 10 miles    
Events Rain    
Averages and records for this station are not official NWS values.
T = Trace of Precipitation, MM = Missing Value Source: NWS Daily Summary

Daily Weather History Graph

Daily Weather History Graph

Search for Another Location

Airport or City:

Astronomy

Nov. 04, 2013 Rise Set
Actual Time 6:40 AM EST 5:18 PM EST
Civil Twilight 6:13 AM EST 5:44 PM EST
Nautical Twilight 5:43 AM EST 6:14 PM EST
Astronomical Twilight 5:13 AM EST 6:44 PM EST
Moon 7:46 AM EST (11/4) 6:23 PM EST (11/4)
Length of Visible Light 11h 30m
Length of Day
10h 38m
New Moon, 2% of the Moon is Illuminated
Nov 4
New Moon
Nov 10
First Quarter
Nov 17
Full
Nov 25
Last Quarter
Dec 2
New

Hourly Weather History & Observations

Time (EST) Temp. Windchill Dew Point Humidity Pressure Visibility Wind Dir Wind Speed Gust Speed Precip Events Conditions
12:58 AM 45.9 °F 44.6 °F 37.0 °F 71% 30.36 in 10.0 mi NE 3.5 mph - N/A   Clear
1:58 AM 42.3 °F 40.5 °F 39.7 °F 91% 30.38 in 10.0 mi North 3.5 mph - N/A   Clear
2:58 AM 41.4 °F - 37.8 °F 87% 30.43 in 10.0 mi North 2.3 mph - N/A   Clear
3:58 AM 39.4 °F 37.2 °F 38.8 °F 98% 30.43 in 10.0 mi NNW 3.5 mph - N/A   Clear
4:58 AM 37.9 °F 34.4 °F 37.8 °F 99% 30.44 in 10.0 mi North 4.6 mph - N/A   Clear
5:58 AM 38.1 °F - 37.6 °F 98% 30.45 in 10.0 mi North 2.3 mph - N/A   Clear
6:58 AM 38.1 °F - 37.0 °F 96% 30.46 in 10.0 mi North 2.3 mph - N/A   Clear
7:58 AM 43.0 °F 41.3 °F 38.5 °F 84% 30.50 in 10.0 mi NNE 3.5 mph - N/A   Clear
8:58 AM 48.0 °F - 37.2 °F 66% 30.51 in 10.0 mi Variable 6.9 mph - N/A   Clear
9:58 AM 52.3 °F - 35.8 °F 53% 30.53 in 10.0 mi NE 8.1 mph - N/A   Clear
10:58 AM 55.9 °F - 34.0 °F 44% 30.52 in 10.0 mi ENE 10.4 mph - N/A   Clear
11:58 AM 57.6 °F - 32.9 °F 39% 30.51 in 10.0 mi NE 8.1 mph - N/A   Clear
12:58 PM 58.8 °F - 31.5 °F 36% 30.48 in 10.0 mi NNE 11.5 mph 16.1 mph N/A   Clear
1:58 PM 58.6 °F - 30.7 °F 35% 30.48 in 10.0 mi NE 12.7 mph 17.3 mph N/A   Clear
2:58 PM 57.9 °F - 31.6 °F 37% 30.47 in 10.0 mi North 5.8 mph 18.4 mph N/A   Clear
3:58 PM 56.5 °F - 31.6 °F 39% 30.49 in 9.0 mi NE 8.1 mph - N/A   Clear
4:43 PM 55.4 °F - 32.0 °F 41% 30.48 in 10.0 mi NE 6.9 mph - N/A Rain Light Rain
4:55 PM 53.6 °F - 32.0 °F 44% 30.48 in 10.0 mi ENE 8.1 mph - N/A   Clear
4:58 PM 54.5 °F - 32.5 °F 43% 30.49 in 10.0 mi NE 6.9 mph - 0.00 in   Clear
5:58 PM 50.0 °F - 32.2 °F 50% 30.51 in 10.0 mi NE 4.6 mph - N/A   Clear
6:58 PM 46.2 °F 44.1 °F 37.2 °F 71% 30.52 in 10.0 mi NE 4.6 mph - N/A   Clear
7:58 PM 45.3 °F 43.0 °F 34.0 °F 65% 30.51 in 10.0 mi NE 4.6 mph - N/A   Clear
8:58 PM 43.7 °F 41.1 °F 33.3 °F 67% 30.53 in 10.0 mi North 4.6 mph - N/A   Clear
9:58 PM 43.5 °F 40.9 °F 32.2 °F 64% 30.53 in 10.0 mi NNE 4.6 mph - N/A   Clear
10:58 PM 42.3 °F 39.4 °F 33.1 °F 70% 30.53 in 10.0 mi North 4.6 mph - N/A   Clear
11:58 PM 40.5 °F 36.5 °F 35.2 °F 82% 30.52 in 10.0 mi NE 5.8 mph - N/A   Clear